METEOR 2-17 DEB

Satellite information

Favourite Embed

Satellite Type and Status

DEBRISIN ORBIT

Key statistics

Satellite METEOR 2-17 DEB at a glance.

Uptime

13733

Days in orbit

Revolutions

≈ 14.1

Per day

Orbit

LEO

Low Earth Orbit

Inclination

82.6

Latest

Satellite identification and parameters

Extended collection of information and parameters for METEOR 2-17 DEB.

Object identification

Identified? True

Debris? True

Object name: METEOR 2-17 DEB

International designator: 1988-005R

Object number (NORAD): 29302

Object ID (CCSDS): 29302

Country: COMMONWEALTH OF INDEPENDENT STATES (CIS)

Current information (Y/N): Y

RCS size: SMALL

Orbital parameters

Period: 102.293 minutes

Inclination: 82.5515 deg

SMA: 7245.318 km

Apoapsis: 880.656 km

Periapsis: 853.71 km

RAAN: 109.9736 deg

Eccentricy: 0.0018596

Argument of periapsis: 76.8064 deg

Mean anomaly: 283.5183 deg

Mean motion: 14.07720988 rev/day

Mean motion (dot): 0.00001637 rev/day2

B* drag term: 0.00095762 1/REarth

Two-line elements (TLE)

Creation date: Aug. 11, 2025, 9:36 a.m.

Reference frame: TEME

Reference center: EARTH

Epoch: Aug. 11, 2025, 12:32 a.m. UTC

TLE line 0: 0 METEOR 2-17 DEB

TLE line 1: 1 29302U 88005R 25223.02290364 .00001637 00000-0 95762-3 0 9996

TLE line 2: 2 29302 82.5515 109.9736 0018596 76.8064 283.5183 14.07720988578094

Live tracking on map

Real-time ground track for satellite METEOR 2-17 DEB.

In-orbit conjunctions

A list of the most updated potential collisions computed for object METEOR 2-17 DEB.

Target Orbit TCA Probability of collision Miss distance Type
FENGYUN 1C DEB SSO 2025-08-14 11:50:19 0.0001077185 171.0 (m) DEBRIS
DELTA 1 DEB SSO 2024-09-25 11:18:24 0.000120316 359.0 (m) DEBRIS
FENGYUN 1C DEB SSO 2024-08-21 14:25:32 0.0001315623 59.0 (m) DEBRIS

Associated space launch

Second generation soviet meteorological satellite

METEOR 2-17 DEB was lifted into orbit during the mission ‘Tsiklon-3 | Meteor-2 17’, on board a Tsiklon-3 space rocket.

The launch took place on Jan. 30, 1988, 10:59 a.m. from 32/1.

For more information about the launch, click the button.

Launch to space Tsiklon-3 | Meteor-2 17
Tsiklon-3 | Meteor-2 17

Agency: N/A

Status: Launch Successful

Launch date: Jan. 30, 1988, 10:59 a.m. UTC

Rocket: Tsiklon-3

Launch pad: 32/1

Location: Plesetsk Cosmodrome, Russian Federation

...

Latest news about this satellite

There are no fresh news available about this satellite. Check back as we update our databases every day.


Newsletter sign-up

Weekly statistics, charts and insights to help you stay on top of the space industry.